TJS-7

Last updated on Thu Nov 21 2024 00:02:44 GMT+0000 (Coordinated Universal Time)

1 49115U 21077A 24325.27551319 -.00000122 00000+0 00000+0 0 9990 2 49115 0.1258 270.9069 0002470 293.6973 214.9201 1.00270172 3814
UTC large
Height (km)
Speed (km/s)
/
Latitude / Longitude
Inclination (degrees)
Orbital Period (minutes)
Azimuth
Elevation
Range (km)
Doppler Factor

Next 0 passes for location: London (51.5072 / 0.1276)

Sorry there are no passes over London.